Location: Newark
(0.5300°S, 127.4800°E)
Time: 23:08:44
(UTC+00:00)

A-11 Canister half - Pass Details

Date: 25 September 2019
Orbit: 1514 x 1686 km, 47.2° (Epoch: 16 October)

Event Time Altitude Azimuth Distance (km) Brightness Sun altitude
Rises 18:32:48 0° 188° (S) 4,923 11.6 -42.2°
Reaches altitude 10° 18:38:27 10° 164° (SSE) 3,907 11.2 -40.8°
Maximum altitude 18:42:57 14° 136° (SE) 3,585 11.3 -39.7°
Drops below altitude 10° 18:47:22 10° 109° (ESE) 3,848 11.7 -38.6°
Sets 18:52:44 0° 85° (E) 4,792 12.5 -37.2°
